Time,TemperatureF,DewpointF,PressureIn,WindDirection,WindDirectionDegrees,WindSpeedMPH,WindSpeedGustMPH,Humidity,HourlyPrecipIn,Conditions,Clouds,dailyrainin,SoftwareType,DateUTC
2013-04-29 00:01:00,75.9,66.2,30.03,ENE,78,1.0,11.0,72,0.00,,,0.00,meteohub,2013-04-29 04:01:00,
2013-04-29 00:02:00,75.9,66.2,30.03,SSE,159,5.0,11.0,72,0.00,,,0.00,meteohub,2013-04-29 04:02:00,
2013-04-29 00:07:00,75.9,65.8,30.03,SSE,154,0.0,14.0,71,0.00,,,0.00,meteohub,2013-04-29 04:07:00,
2013-04-29 00:12:00,75.7,65.3,30.03,South,180,4.0,14.0,70,0.00,,,0.00,meteohub,2013-04-29 04:12:00,
2013-04-29 00:17:00,75.7,64.4,30.02,ESE,105,0.0,14.0,68,0.00,,,0.00,meteohub,2013-04-29 04:17:00,
2013-04-29 00:22:00,75.7,64.4,30.02,SSE,161,1.0,9.0,68,0.00,,,0.00,meteohub,2013-04-29 04:22:00,
2013-04-29 00:27:00,75.7,64.0,30.02,East,96,2.0,9.0,67,0.00,,,0.00,meteohub,2013-04-29 04:27:00,
2013-04-29 00:32:00,75.6,63.9,30.02,SE,128,4.0,13.0,67,0.00,,,0.00,meteohub,2013-04-29 04:32:00,
2013-04-29 00:37:00,75.6,64.8,30.02,South,178,6.0,13.0,69,0.00,,,0.00,meteohub,2013-04-29 04:37:00,
2013-04-29 00:42:00,75.6,64.8,30.02,SSE,148,6.0,13.0,69,0.00,,,0.00,meteohub,2013-04-29 04:42:00,
2013-04-29 00:47:00,75.4,64.0,30.02,SSW,200,3.0,11.0,68,0.00,,,0.00,meteohub,2013-04-29 04:47:00,
2013-04-29 00:52:00,75.4,63.7,30.02,SE,135,5.0,11.0,67,0.00,,,0.00,meteohub,2013-04-29 04:52:00,
2013-04-29 00:57:00,75.4,63.1,30.02,SSE,147,0.0,11.0,66,0.00,,,0.00,meteohub,2013-04-29 04:57:00,
2013-04-29 01:02:00,75.2,63.1,30.02,ENE,74,1.0,7.0,66,0.00,,,0.00,meteohub,2013-04-29 05:02:00,
2013-04-29 01:07:00,75.0,63.0,30.02,ESE,117,0.0,7.0,66,0.00,,,0.00,meteohub,2013-04-29 05:07:00,
2013-04-29 01:12:00,75.0,64.6,30.02,SE,133,1.0,7.0,70,0.00,,,0.00,meteohub,2013-04-29 05:12:00,
2013-04-29 01:17:00,75.0,64.6,30.02,ESE,105,4.0,8.0,70,0.00,,,0.00,meteohub,2013-04-29 05:17:00,
2013-04-29 01:22:00,75.0,64.6,30.02,SSE,150,0.0,8.0,70,0.00,,,0.00,meteohub,2013-04-29 05:22:00,
2013-04-29 01:27:00,75.0,64.6,30.01,NE,54,2.0,8.0,70,0.00,,,0.00,meteohub,2013-04-29 05:27:00,
2013-04-29 01:32:00,74.8,64.4,30.01,ENE,62,1.0,8.0,70,0.00,,,0.00,meteohub,2013-04-29 05:32:00,
2013-04-29 01:37:00,74.8,64.8,30.01,SSE,163,1.0,8.0,71,0.00,,,0.00,meteohub,2013-04-29 05:37:00,
2013-04-29 01:42:00,74.8,64.4,30.01,ENE,69,0.0,8.0,70,0.00,,,0.00,meteohub,2013-04-29 05:42:00,
2013-04-29 01:47:00,74.8,64.4,30.01,SE,130,0.0,7.0,70,0.00,,,0.00,meteohub,2013-04-29 05:47:00,
2013-04-29 01:52:00,74.7,65.1,30.01,SSE,151,2.0,7.0,72,0.00,,,0.00,meteohub,2013-04-29 05:52:00,
2013-04-29 01:57:00,74.7,64.6,30.01,East,95,1.0,7.0,71,0.00,,,0.00,meteohub,2013-04-29 05:57:00,
2013-04-29 02:02:00,74.8,64.4,30.01,ESE,105,1.0,8.0,70,0.00,,,0.00,meteohub,2013-04-29 06:02:00,
2013-04-29 02:07:00,74.8,63.5,30.01,South,169,3.0,8.0,68,0.00,,,0.00,meteohub,2013-04-29 06:07:00,
2013-04-29 02:12:00,74.7,63.9,30.00,SSW,201,1.0,8.0,69,0.00,,,0.00,meteohub,2013-04-29 06:12:00,
2013-04-29 02:18:00,74.7,64.2,30.00,ENE,76,0.0,8.0,70,0.00,,,0.00,meteohub,2013-04-29 06:18:00,
2013-04-29 02:23:00,74.7,64.2,30.00,ESE,121,0.0,5.0,70,0.00,,,0.00,meteohub,2013-04-29 06:23:00,
2013-04-29 02:28:00,74.7,63.3,30.00,SSE,159,0.0,7.0,68,0.00,,,0.00,meteohub,2013-04-29 06:28:00,
2013-04-29 02:33:00,74.5,63.1,30.00,SSE,149,1.0,7.0,68,0.00,,,0.00,meteohub,2013-04-29 06:33:00,
2013-04-29 02:38:00,74.5,63.7,30.00,SE,141,0.0,7.0,69,0.00,,,0.00,meteohub,2013-04-29 06:38:00,
2013-04-29 02:43:00,74.5,63.7,30.00,SSE,157,0.0,5.0,69,0.00,,,0.00,meteohub,2013-04-29 06:43:00,
2013-04-29 02:48:00,74.3,64.2,30.00,East,88,0.0,5.0,71,0.00,,,0.00,meteohub,2013-04-29 06:48:00,
2013-04-29 02:53:00,74.1,64.6,30.00,East,80,0.0,5.0,72,0.00,,,0.00,meteohub,2013-04-29 06:53:00,
2013-04-29 02:58:00,74.1,64.9,30.00,SE,132,0.0,3.0,73,0.00,,,0.00,meteohub,2013-04-29 06:58:00,
2013-04-29 03:03:00,74.1,64.9,30.00,SE,132,0.0,4.0,73,0.00,,,0.00,meteohub,2013-04-29 07:03:00,
2013-04-29 03:08:00,74.1,65.3,30.00,East,94,2.0,4.0,74,0.00,,,0.00,meteohub,2013-04-29 07:08:00,
2013-04-29 03:13:00,74.5,65.7,29.99,SSE,165,0.0,4.0,74,0.00,,,0.00,meteohub,2013-04-29 07:13:00,
2013-04-29 03:18:00,74.7,65.8,29.99,East,82,0.0,6.0,74,0.00,,,0.00,meteohub,2013-04-29 07:18:00,
2013-04-29 03:23:00,74.7,65.5,29.99,SE,144,0.0,6.0,73,0.00,,,0.00,meteohub,2013-04-29 07:23:00,
2013-04-29 03:28:00,74.7,65.8,29.99,SE,136,5.0,8.0,74,0.00,,,0.00,meteohub,2013-04-29 07:28:00,
2013-04-29 03:33:00,74.7,65.5,29.99,SE,134,3.0,8.0,73,0.00,,,0.00,meteohub,2013-04-29 07:33:00,
2013-04-29 03:38:00,74.7,65.5,29.99,ESE,116,1.0,8.0,73,0.00,,,0.00,meteohub,2013-04-29 07:38:00,
2013-04-29 03:43:00,74.7,65.5,29.99,SE,143,0.0,8.0,73,0.00,,,0.00,meteohub,2013-04-29 07:43:00,
2013-04-29 03:48:00,74.7,65.5,29.99,SE,146,0.0,7.0,73,0.00,,,0.00,meteohub,2013-04-29 07:48:00,
2013-04-29 03:53:00,74.7,65.8,29.98,ESE,118,1.0,9.0,74,0.00,,,0.00,meteohub,2013-04-29 07:53:00,
2013-04-29 03:58:00,74.5,65.7,29.99,SSE,147,0.0,9.0,74,0.00,,,0.00,meteohub,2013-04-29 07:58:00,
2013-04-29 04:03:00,74.5,65.7,29.99,ESE,112,0.0,9.0,74,0.00,,,0.00,meteohub,2013-04-29 08:03:00,
2013-04-29 04:08:00,74.5,65.7,29.99,South,190,3.0,8.0,74,0.00,,,0.00,meteohub,2013-04-29 08:08:00,
2013-04-29 04:13:00,74.5,65.7,29.99,SE,145,0.0,6.0,74,0.00,,,0.00,meteohub,2013-04-29 08:13:00,
2013-04-29 04:18:00,74.5,65.3,29.99,SE,146,3.0,6.0,73,0.00,,,0.00,meteohub,2013-04-29 08:18:00,
2013-04-29 04:23:00,74.3,65.1,29.99,South,173,2.0,6.0,73,0.00,,,0.00,meteohub,2013-04-29 08:23:00,
2013-04-29 04:28:00,74.5,65.3,29.99,SSE,153,7.0,7.0,73,0.00,,,0.00,meteohub,2013-04-29 08:28:00,
2013-04-29 04:33:00,74.5,64.9,29.99,East,96,2.0,7.0,72,0.00,,,0.00,meteohub,2013-04-29 08:33:00,
2013-04-29 04:38:00,74.5,64.9,29.99,ESE,115,2.0,8.0,72,0.00,,,0.00,meteohub,2013-04-29 08:38:00,
2013-04-29 04:44:00,74.5,65.3,29.99,South,179,7.0,8.0,73,0.00,,,0.00,meteohub,2013-04-29 08:44:00,
2013-04-29 04:49:00,74.5,65.3,29.99,SSE,160,1.0,8.0,73,0.00,,,0.00,meteohub,2013-04-29 08:49:00,
2013-04-29 04:54:00,74.5,64.9,29.99,SSE,148,0.0,8.0,72,0.00,,,0.00,meteohub,2013-04-29 08:54:00,
2013-04-29 04:59:00,74.5,64.9,29.99,SE,135,1.0,7.0,72,0.00,,,0.00,meteohub,2013-04-29 08:59:00,
2013-04-29 05:04:00,74.5,64.9,29.99,SE,124,0.0,7.0,72,0.00,,,0.00,meteohub,2013-04-29 09:04:00,
2013-04-29 05:09:00,74.5,65.3,29.99,SE,142,3.0,7.0,73,0.00,,,0.00,meteohub,2013-04-29 09:09:00,
2013-04-29 05:14:00,74.5,65.3,29.99,SE,142,1.0,7.0,73,0.00,,,0.00,meteohub,2013-04-29 09:14:00,
2013-04-29 05:19:00,74.3,65.1,29.98,SE,136,1.0,7.0,73,0.00,,,0.00,meteohub,2013-04-29 09:19:00,
2013-04-29 05:24:00,74.3,65.1,29.99,South,180,0.0,8.0,73,0.00,,,0.00,meteohub,2013-04-29 09:24:00,
2013-04-29 05:29:00,74.1,64.9,29.99,ESE,109,2.0,8.0,73,0.00,,,0.00,meteohub,2013-04-29 09:29:00,
2013-04-29 05:34:00,74.3,65.1,29.99,SE,135,0.0,8.0,73,0.00,,,0.00,meteohub,2013-04-29 09:34:00,
2013-04-29 05:39:00,74.5,65.3,29.99,SSE,151,1.0,6.0,73,0.00,,,0.00,meteohub,2013-04-29 09:39:00,
2013-04-29 05:44:00,74.5,65.7,29.99,SSE,156,0.0,7.0,74,0.00,,,0.00,meteohub,2013-04-29 09:44:00,
2013-04-29 05:49:00,74.5,65.7,29.99,SSW,198,0.0,7.0,74,0.00,,,0.00,meteohub,2013-04-29 09:49:00,
2013-04-29 05:54:00,74.5,66.0,29.99,SSE,150,3.0,8.0,75,0.00,,,0.00,meteohub,2013-04-29 09:54:00,
2013-04-29 05:59:00,74.5,65.7,29.99,SSE,165,0.0,8.0,74,0.00,,,0.00,meteohub,2013-04-29 09:59:00,
2013-04-29 06:04:00,74.3,65.5,29.99,SE,130,1.0,8.0,74,0.00,,,0.00,meteohub,2013-04-29 10:04:00,
2013-04-29 06:09:00,74.3,65.5,29.99,ESE,121,0.0,8.0,74,0.00,,,0.00,meteohub,2013-04-29 10:09:00,
2013-04-29 06:14:00,74.1,64.9,29.99,South,174,1.0,7.0,73,0.00,,,0.00,meteohub,2013-04-29 10:14:00,
2013-04-29 06:19:00,74.1,64.9,29.99,SE,146,0.0,7.0,73,0.00,,,0.00,meteohub,2013-04-29 10:19:00,
2013-04-29 06:24:00,74.1,65.3,30.00,SSE,166,1.0,7.0,74,0.00,,,0.00,meteohub,2013-04-29 10:24:00,
2013-04-29 06:29:00,74.1,64.9,30.00,SE,130,3.0,7.0,73,0.00,,,0.00,meteohub,2013-04-29 10:29:00,
2013-04-29 06:34:00,74.1,64.9,30.00,NE,56,0.0,7.0,73,0.00,,,0.00,meteohub,2013-04-29 10:34:00,
2013-04-29 06:39:00,74.1,65.3,30.00,SSE,160,0.0,7.0,74,0.00,,,0.00,meteohub,2013-04-29 10:39:00,
2013-04-29 06:44:00,74.1,65.3,30.01,ESE,111,0.0,7.0,74,0.00,,,0.00,meteohub,2013-04-29 10:44:00,
2013-04-29 06:49:00,74.1,65.3,30.01,ESE,119,0.0,6.0,74,0.00,,,0.00,meteohub,2013-04-29 10:49:00,
2013-04-29 06:54:00,73.9,64.8,30.01,ESE,122,0.0,5.0,73,0.00,,,0.00,meteohub,2013-04-29 10:54:00,
2013-04-29 06:59:00,74.1,64.9,30.01,ENE,77,0.0,4.0,73,0.00,,,0.00,meteohub,2013-04-29 10:59:00,
2013-04-29 07:04:00,74.1,64.9,30.01,SSE,155,2.0,5.0,73,0.00,,,0.00,meteohub,2013-04-29 11:04:00,
2013-04-29 07:09:00,74.1,64.9,30.01,SE,130,0.0,5.0,73,0.00,,,0.00,meteohub,2013-04-29 11:09:00,
2013-04-29 07:14:00,74.3,65.1,30.01,ESE,119,1.0,8.0,73,0.00,,,0.00,meteohub,2013-04-29 11:14:00,
2013-04-29 07:19:00,74.3,65.1,30.01,SE,140,0.0,8.0,73,0.00,,,0.00,meteohub,2013-04-29 11:19:00,
2013-04-29 07:24:00,74.5,64.9,30.01,SSE,164,2.0,8.0,72,0.00,,,0.00,meteohub,2013-04-29 11:24:00,
2013-04-29 07:29:00,74.7,65.1,30.01,SSW,194,3.0,7.0,72,0.00,,,0.00,meteohub,2013-04-29 11:29:00,
2013-04-29 07:34:00,74.8,64.4,30.01,NE,48,0.0,7.0,70,0.00,,,0.00,meteohub,2013-04-29 11:34:00,
2013-04-29 07:39:00,75.2,65.1,30.02,SE,134,1.0,7.0,71,0.00,,,0.00,meteohub,2013-04-29 11:39:00,
2013-04-29 07:44:00,75.4,65.3,30.01,ESE,114,0.0,7.0,71,0.00,,,0.00,meteohub,2013-04-29 11:44:00,
2013-04-29 07:49:00,75.6,65.1,30.01,South,169,1.0,7.0,70,0.00,,,0.00,meteohub,2013-04-29 11:49:00,
2013-04-29 07:54:00,75.9,65.5,30.02,South,171,0.0,5.0,70,0.00,,,0.00,meteohub,2013-04-29 11:54:00,
2013-04-29 07:59:00,76.5,66.0,30.02,North,10,0.0,5.0,70,0.00,,,0.00,meteohub,2013-04-29 11:59:00,
2013-04-29 08:04:00,76.6,66.2,30.02,SE,142,4.0,6.0,70,0.00,,,0.00,meteohub,2013-04-29 12:04:00,
2013-04-29 08:10:00,77.0,66.4,30.02,SSW,192,4.0,7.0,70,0.00,,,0.00,meteohub,2013-04-29 12:10:00,
2013-04-29 08:15:00,77.2,66.6,30.02,SE,138,1.0,7.0,70,0.00,,,0.00,meteohub,2013-04-29 12:15:00,
2013-04-29 08:20:00,77.2,66.6,30.02,SE,138,0.0,7.0,70,0.00,,,0.00,meteohub,2013-04-29 12:20:00,
2013-04-29 08:25:00,77.0,66.0,30.03,South,189,4.0,7.0,69,0.00,,,0.00,meteohub,2013-04-29 12:25:00,
2013-04-29 08:30:00,77.0,66.4,30.02,ENE,61,0.0,7.0,70,0.00,,,0.00,meteohub,2013-04-29 12:30:00,
2013-04-29 08:35:00,77.0,66.0,30.02,ESE,119,0.0,7.0,69,0.00,,,0.00,meteohub,2013-04-29 12:35:00,
2013-04-29 08:40:00,77.2,65.8,30.02,SW,219,0.0,7.0,68,0.00,,,0.00,meteohub,2013-04-29 12:40:00,
2013-04-29 08:45:00,77.2,65.3,30.02,ESE,110,0.0,8.0,67,0.00,,,0.00,meteohub,2013-04-29 12:45:00,
2013-04-29 08:50:00,77.5,66.6,30.02,ENE,67,0.0,8.0,69,0.00,,,0.00,meteohub,2013-04-29 12:50:00,
2013-04-29 08:55:00,77.9,66.6,30.03,ENE,77,2.0,8.0,68,0.00,,,0.00,meteohub,2013-04-29 12:55:00,
2013-04-29 09:00:00,78.1,66.7,30.03,ESE,106,0.0,8.0,68,0.00,,,0.00,meteohub,2013-04-29 13:00:00,
2013-04-29 09:05:00,78.3,66.4,30.03,East,90,3.0,7.0,67,0.00,,,0.00,meteohub,2013-04-29 13:05:00,
2013-04-29 09:10:00,78.4,66.2,30.03,SSE,160,1.0,7.0,66,0.00,,,0.00,meteohub,2013-04-29 13:10:00,
2013-04-29 09:15:00,78.6,66.4,30.02,South,190,1.0,8.0,66,0.00,,,0.00,meteohub,2013-04-29 13:15:00,
2013-04-29 09:20:00,79.2,66.7,30.02,SE,132,1.0,8.0,66,0.00,,,0.00,meteohub,2013-04-29 13:20:00,
2013-04-29 09:25:00,79.7,66.9,30.02,SE,133,0.0,8.0,65,0.00,,,0.00,meteohub,2013-04-29 13:25:00,
2013-04-29 09:30:00,79.9,67.1,30.02,East,88,1.0,8.0,65,0.00,,,0.00,meteohub,2013-04-29 13:30:00,
2013-04-29 09:35:00,79.3,67.5,30.02,SE,133,1.0,7.0,67,0.00,,,0.00,meteohub,2013-04-29 13:35:00,
2013-04-29 09:40:00,79.3,67.8,30.02,ESE,113,1.0,8.0,68,0.00,,,0.00,meteohub,2013-04-29 13:40:00,
2013-04-29 09:45:00,79.5,68.0,30.02,SE,142,1.0,8.0,68,0.00,,,0.00,meteohub,2013-04-29 13:45:00,
2013-04-29 09:50:00,79.5,68.0,30.02,ESE,107,0.0,8.0,68,0.00,,,0.00,meteohub,2013-04-29 13:50:00,
2013-04-29 09:55:00,79.3,68.4,30.02,ESE,112,1.0,8.0,69,0.00,,,0.00,meteohub,2013-04-29 13:55:00,
2013-04-29 10:00:00,79.3,68.4,30.02,East,88,5.0,8.0,69,0.00,,,0.00,meteohub,2013-04-29 14:00:00,
2013-04-29 10:05:00,79.3,67.8,30.03,SE,146,3.0,10.0,68,0.00,,,0.00,meteohub,2013-04-29 14:05:00,
2013-04-29 10:10:00,79.5,68.5,30.03,SSE,168,0.0,10.0,69,0.00,,,0.00,meteohub,2013-04-29 14:10:00,
2013-04-29 10:15:00,80.1,68.2,30.03,SSE,163,2.0,10.0,67,0.00,,,0.00,meteohub,2013-04-29 14:15:00,
2013-04-29 10:20:00,80.1,67.3,30.03,ESE,118,7.0,9.0,65,0.00,,,0.00,meteohub,2013-04-29 14:20:00,
2013-04-29 10:25:00,79.9,68.0,30.03,SE,125,2.0,10.0,67,0.00,,,0.00,meteohub,2013-04-29 14:25:00,
2013-04-29 10:30:00,80.1,67.6,30.03,SE,130,6.0,10.0,66,0.00,,,0.00,meteohub,2013-04-29 14:30:00,
2013-04-29 10:35:00,80.1,67.6,30.03,SE,136,3.0,11.0,66,0.00,,,0.00,meteohub,2013-04-29 14:35:00,
2013-04-29 10:40:00,79.9,68.0,30.04,SE,125,1.0,11.0,67,0.00,,,0.00,meteohub,2013-04-29 14:40:00,
2013-04-29 10:45:00,80.2,67.8,30.04,East,94,1.0,11.0,66,0.00,,,0.00,meteohub,2013-04-29 14:45:00,
2013-04-29 10:50:00,80.1,67.6,30.04,SE,125,6.0,11.0,66,0.00,,,0.00,meteohub,2013-04-29 14:50:00,
2013-04-29 10:55:00,80.4,68.0,30.04,South,189,9.0,11.0,66,0.00,,,0.00,meteohub,2013-04-29 14:55:00,
2013-04-29 11:00:00,81.0,68.5,30.04,East,100,0.0,11.0,66,0.00,,,0.00,meteohub,2013-04-29 15:00:00,
2013-04-29 11:05:00,81.9,68.5,30.04,ESE,115,3.0,10.0,64,0.00,,,0.00,meteohub,2013-04-29 15:05:00,
2013-04-29 11:10:00,81.9,68.0,30.04,SE,146,2.0,10.0,63,0.00,,,0.00,meteohub,2013-04-29 15:10:00,
2013-04-29 11:15:00,81.9,67.6,30.04,SE,142,0.0,10.0,62,0.00,,,0.00,meteohub,2013-04-29 15:15:00,
2013-04-29 11:21:00,81.9,68.0,30.04,SSE,147,6.0,10.0,63,0.00,,,0.00,meteohub,2013-04-29 15:21:00,
2013-04-29 11:26:00,81.7,68.4,30.04,ESE,122,3.0,9.0,64,0.00,,,0.00,meteohub,2013-04-29 15:26:00,
2013-04-29 11:31:00,81.9,70.3,30.04,SSE,152,6.0,13.0,68,0.00,,,0.00,meteohub,2013-04-29 15:31:00,
2013-04-29 11:35:00,82.2,69.3,30.04,South,185,7.0,13.0,65,0.00,,,0.00,meteohub,2013-04-29 15:35:00,
2013-04-29 11:41:00,82.0,69.6,30.04,East,85,0.0,13.0,66,0.00,,,0.00,meteohub,2013-04-29 15:41:00,
2013-04-29 11:46:00,82.2,68.9,30.04,SSW,202,0.0,10.0,64,0.00,,,0.00,meteohub,2013-04-29 15:46:00,
2013-04-29 11:51:00,82.4,68.5,30.04,SE,130,7.0,10.0,63,0.00,,,0.00,meteohub,2013-04-29 15:51:00,
2013-04-29 11:56:00,82.0,68.2,30.04,SE,136,2.0,8.0,63,0.00,,,0.00,meteohub,2013-04-29 15:56:00,
2013-04-29 12:01:00,81.9,67.6,30.04,SSE,159,3.0,10.0,62,0.00,,,0.00,meteohub,2013-04-29 16:01:00,
2013-04-29 12:06:00,81.9,67.6,30.04,East,90,0.0,10.0,62,0.00,,,0.00,meteohub,2013-04-29 16:06:00,
2013-04-29 12:11:00,82.0,67.3,30.04,SSW,194,5.0,10.0,61,0.00,,,0.00,meteohub,2013-04-29 16:11:00,
2013-04-29 12:16:00,81.7,67.8,30.04,SW,217,4.0,10.0,63,0.00,,,0.00,meteohub,2013-04-29 16:16:00,
2013-04-29 12:21:00,81.7,68.7,30.03,SE,135,3.0,10.0,65,0.00,,,0.00,meteohub,2013-04-29 16:21:00,
2013-04-29 12:26:00,81.7,68.4,30.03,NE,55,1.0,10.0,64,0.00,,,0.00,meteohub,2013-04-29 16:26:00,
2013-04-29 12:31:00,81.9,68.0,30.03,ENE,58,1.0,10.0,63,0.00,,,0.00,meteohub,2013-04-29 16:31:00,
2013-04-29 12:36:00,82.6,69.1,30.03,South,188,1.0,9.0,64,0.00,,,0.00,meteohub,2013-04-29 16:36:00,
2013-04-29 12:41:00,82.9,70.0,30.03,SSE,159,0.0,11.0,65,0.00,,,0.00,meteohub,2013-04-29 16:41:00,
2013-04-29 12:46:00,83.1,69.6,30.02,SSE,157,0.0,11.0,64,0.00,,,0.00,meteohub,2013-04-29 16:46:00,
2013-04-29 12:51:00,83.1,69.3,30.02,SE,126,3.0,11.0,63,0.00,,,0.00,meteohub,2013-04-29 16:51:00,
2013-04-29 12:56:00,82.9,69.4,30.02,ESE,119,3.0,11.0,64,0.00,,,0.00,meteohub,2013-04-29 16:56:00,
2013-04-29 13:01:00,82.6,69.6,30.02,ESE,121,4.0,11.0,65,0.00,,,0.00,meteohub,2013-04-29 17:01:00,
2013-04-29 13:06:00,82.4,69.4,30.02,North,355,2.0,11.0,65,0.00,,,0.00,meteohub,2013-04-29 17:06:00,
2013-04-29 13:11:00,82.6,69.6,30.01,SE,138,5.0,10.0,65,0.00,,,0.00,meteohub,2013-04-29 17:11:00,
2013-04-29 13:16:00,82.0,69.6,30.01,South,185,3.0,11.0,66,0.00,,,0.00,meteohub,2013-04-29 17:16:00,
2013-04-29 13:21:00,81.7,69.3,30.01,East,97,0.0,11.0,66,0.00,,,0.00,meteohub,2013-04-29 17:21:00,
2013-04-29 13:26:00,81.7,70.2,30.01,SE,130,3.0,11.0,68,0.00,,,0.00,meteohub,2013-04-29 17:26:00,
2013-04-29 13:31:00,82.6,70.5,30.00,SE,130,5.0,10.0,67,0.00,,,0.00,meteohub,2013-04-29 17:31:00,
2013-04-29 13:36:00,82.2,70.2,30.00,SSE,160,2.0,10.0,67,0.00,,,0.00,meteohub,2013-04-29 17:36:00,
2013-04-29 13:41:00,82.2,70.2,30.00,SSE,150,3.0,10.0,67,0.00,,,0.00,meteohub,2013-04-29 17:41:00,
2013-04-29 13:46:00,82.0,70.3,30.00,East,96,3.0,10.0,68,0.00,,,0.00,meteohub,2013-04-29 17:46:00,
2013-04-29 13:51:00,81.9,70.3,30.01,ESE,115,10.0,13.0,68,0.00,,,0.00,meteohub,2013-04-29 17:51:00,
2013-04-29 13:56:00,81.7,70.5,30.01,SE,142,1.0,13.0,69,0.00,,,0.00,meteohub,2013-04-29 17:56:00,
2013-04-29 14:01:00,82.0,70.0,30.01,SSE,162,1.0,13.0,67,0.00,,,0.00,meteohub,2013-04-29 18:01:00,
2013-04-29 14:06:00,82.2,70.2,30.01,South,186,5.0,12.0,67,0.00,,,0.00,meteohub,2013-04-29 18:06:00,
2013-04-29 14:11:00,81.9,70.3,30.00,SSE,159,4.0,10.0,68,0.00,,,0.00,meteohub,2013-04-29 18:11:00,
2013-04-29 14:16:00,81.9,70.3,30.00,SE,138,4.0,10.0,68,0.00,,,0.00,meteohub,2013-04-29 18:16:00,
2013-04-29 14:21:00,82.2,70.5,30.00,SSE,148,1.0,10.0,68,0.00,,,0.00,meteohub,2013-04-29 18:21:00,
2013-04-29 14:26:00,82.6,70.5,30.00,SSE,150,2.0,10.0,67,0.00,,,0.00,meteohub,2013-04-29 18:26:00,
2013-04-29 14:31:00,82.2,70.5,29.99,ESE,116,1.0,9.0,68,0.00,,,0.00,meteohub,2013-04-29 18:31:00,
2013-04-29 14:36:00,82.2,70.2,29.99,East,98,7.0,9.0,67,0.00,,,0.00,meteohub,2013-04-29 18:36:00,
2013-04-29 14:41:00,82.6,70.9,29.99,South,173,4.0,9.0,68,0.00,,,0.00,meteohub,2013-04-29 18:41:00,
2013-04-29 14:46:00,82.9,70.3,29.99,East,90,6.0,8.0,66,0.00,,,0.00,meteohub,2013-04-29 18:46:00,
2013-04-29 14:51:00,81.9,70.3,29.98,South,180,0.0,9.0,68,0.00,,,0.00,meteohub,2013-04-29 18:51:00,
2013-04-29 14:56:00,81.1,70.0,29.98,ENE,69,3.0,9.0,69,0.00,,,0.00,meteohub,2013-04-29 18:56:00,
2013-04-29 15:01:00,80.2,70.0,29.99,SSE,149,3.0,9.0,71,0.00,,,0.00,meteohub,2013-04-29 19:01:00,
2013-04-29 15:06:00,79.5,69.6,29.98,SE,135,1.0,8.0,72,0.00,,,0.00,meteohub,2013-04-29 19:06:00,
2013-04-29 15:11:00,79.2,69.8,29.98,ESE,122,0.0,8.0,73,0.00,,,0.00,meteohub,2013-04-29 19:11:00,
2013-04-29 15:16:00,78.8,69.4,29.99,SSE,152,0.0,8.0,73,0.00,,,0.00,meteohub,2013-04-29 19:16:00,
2013-04-29 15:21:00,78.4,69.4,29.99,SSE,154,1.0,8.0,74,0.00,,,0.00,meteohub,2013-04-29 19:21:00,
2013-04-29 15:26:00,78.3,69.3,29.98,SE,132,3.0,7.0,74,0.00,,,0.00,meteohub,2013-04-29 19:26:00,
2013-04-29 15:31:00,77.9,69.3,29.99,SSE,161,1.0,8.0,75,0.00,,,0.00,meteohub,2013-04-29 19:31:00,
2013-04-29 15:36:00,77.7,69.1,29.99,South,176,3.0,9.0,75,0.00,,,0.00,meteohub,2013-04-29 19:36:00,
2013-04-29 15:41:00,77.5,68.9,29.99,SE,138,3.0,9.0,75,0.00,,,0.00,meteohub,2013-04-29 19:41:00,
2013-04-29 15:46:00,77.7,69.6,29.99,SE,144,1.0,9.0,76,0.00,,,0.00,meteohub,2013-04-29 19:46:00,
2013-04-29 15:51:00,77.7,69.6,29.99,South,171,0.0,8.0,76,0.00,,,0.00,meteohub,2013-04-29 19:51:00,
2013-04-29 15:56:00,77.9,70.2,29.99,South,188,1.0,6.0,77,0.00,,,0.00,meteohub,2013-04-29 19:56:00,
2013-04-29 16:01:00,77.7,70.0,29.98,SE,146,1.0,10.0,77,0.00,,,0.00,meteohub,2013-04-29 20:01:00,
2013-04-29 16:06:00,77.5,69.4,29.98,South,188,7.0,10.0,76,0.00,,,0.00,meteohub,2013-04-29 20:06:00,
2013-04-29 16:11:00,77.5,69.8,29.98,SE,135,2.0,10.0,77,0.00,,,0.00,meteohub,2013-04-29 20:11:00,
2013-04-29 16:16:00,77.5,69.8,29.98,ESE,105,7.0,9.0,77,0.00,,,0.00,meteohub,2013-04-29 20:16:00,
2013-04-29 16:21:00,77.5,69.8,29.98,SE,142,1.0,9.0,77,0.00,,,0.00,meteohub,2013-04-29 20:21:00,
2013-04-29 16:26:00,77.5,69.8,29.98,South,175,2.0,8.0,77,0.00,,,0.00,meteohub,2013-04-29 20:26:00,
2013-04-29 16:31:00,77.5,69.8,29.98,SSE,151,2.0,9.0,77,0.00,,,0.00,meteohub,2013-04-29 20:31:00,
2013-04-29 16:36:00,77.5,70.2,29.97,SE,142,3.0,9.0,78,0.00,,,0.00,meteohub,2013-04-29 20:36:00,
2013-04-29 16:41:00,77.5,70.2,29.97,ESE,115,2.0,9.0,78,0.00,,,0.00,meteohub,2013-04-29 20:41:00,
2013-04-29 16:46:00,77.5,70.2,29.97,SE,140,3.0,9.0,78,0.00,,,0.00,meteohub,2013-04-29 20:46:00,
2013-04-29 16:51:00,77.5,70.2,29.97,SE,138,1.0,9.0,78,0.00,,,0.00,meteohub,2013-04-29 20:51:00,
2013-04-29 16:56:00,77.7,70.3,29.96,SSE,160,3.0,9.0,78,0.00,,,0.00,meteohub,2013-04-29 20:56:00,
2013-04-29 17:01:00,77.7,70.3,29.96,ESE,117,4.0,11.0,78,0.00,,,0.00,meteohub,2013-04-29 21:01:00,
2013-04-29 17:06:00,78.1,70.7,29.96,SSE,147,3.0,11.0,78,0.00,,,0.00,meteohub,2013-04-29 21:06:00,
2013-04-29 17:11:00,77.9,70.5,29.96,South,171,5.0,11.0,78,0.00,,,0.00,meteohub,2013-04-29 21:11:00,
2013-04-29 17:16:00,77.9,70.5,29.96,ESE,109,5.0,10.0,78,0.00,,,0.00,meteohub,2013-04-29 21:16:00,
2013-04-29 17:21:00,77.9,70.5,29.96,SE,138,1.0,10.0,78,0.00,,,0.00,meteohub,2013-04-29 21:21:00,
2013-04-29 17:26:00,77.7,70.3,29.96,SE,136,1.0,10.0,78,0.00,,,0.00,meteohub,2013-04-29 21:26:00,
2013-04-29 17:31:00,77.7,70.3,29.96,SSE,161,3.0,12.0,78,0.00,,,0.00,meteohub,2013-04-29 21:31:00,
2013-04-29 17:36:00,77.5,70.2,29.96,ESE,107,5.0,12.0,78,0.00,,,0.00,meteohub,2013-04-29 21:36:00,
2013-04-29 17:41:00,77.7,70.7,29.96,South,169,2.0,12.0,79,0.00,,,0.00,meteohub,2013-04-29 21:41:00,
2013-04-29 17:46:00,77.7,70.3,29.96,SSE,162,3.0,9.0,78,0.00,,,0.00,meteohub,2013-04-29 21:46:00,
2013-04-29 17:51:00,77.7,70.3,29.96,South,172,2.0,9.0,78,0.00,,,0.00,meteohub,2013-04-29 21:51:00,
2013-04-29 17:56:00,78.1,70.7,29.96,SSW,194,6.0,8.0,78,0.00,,,0.00,meteohub,2013-04-29 21:56:00,
2013-04-29 18:01:00,78.3,70.9,29.96,SE,125,5.0,9.0,78,0.00,,,0.00,meteohub,2013-04-29 22:01:00,
2013-04-29 18:06:00,78.4,70.7,29.96,SE,130,2.0,9.0,77,0.00,,,0.00,meteohub,2013-04-29 22:06:00,
2013-04-29 18:12:00,78.4,70.7,29.96,South,175,6.0,9.0,77,0.00,,,0.00,meteohub,2013-04-29 22:12:00,
2013-04-29 18:17:00,78.6,70.9,29.96,SSE,163,1.0,9.0,77,0.00,,,0.00,meteohub,2013-04-29 22:17:00,
2013-04-29 18:22:00,78.6,70.9,29.95,SSW,194,3.0,11.0,77,0.00,,,0.00,meteohub,2013-04-29 22:22:00,
2013-04-29 18:27:00,78.6,70.9,29.95,ESE,123,0.0,11.0,77,0.00,,,0.00,meteohub,2013-04-29 22:27:00,
2013-04-29 18:32:00,78.6,70.9,29.94,SSE,165,3.0,11.0,77,0.00,,,0.00,meteohub,2013-04-29 22:32:00,
2013-04-29 18:37:00,78.6,70.9,29.94,SSE,166,0.0,9.0,77,0.00,,,0.00,meteohub,2013-04-29 22:37:00,
2013-04-29 18:42:00,78.6,70.9,29.94,ENE,74,1.0,9.0,77,0.00,,,0.00,meteohub,2013-04-29 22:42:00,
2013-04-29 18:47:00,78.4,70.7,29.94,NE,54,3.0,8.0,77,0.00,,,0.00,meteohub,2013-04-29 22:47:00,
2013-04-29 18:52:00,78.3,70.9,29.94,SSE,148,5.0,8.0,78,0.00,,,0.00,meteohub,2013-04-29 22:52:00,
2013-04-29 18:57:00,77.9,70.5,29.94,SSE,160,4.0,9.0,78,0.00,,,0.00,meteohub,2013-04-29 22:57:00,
2013-04-29 19:02:00,77.7,70.7,29.94,South,186,5.0,9.0,79,0.00,,,0.00,meteohub,2013-04-29 23:02:00,
2013-04-29 19:07:00,77.5,70.5,29.95,ESE,113,0.0,9.0,79,0.00,,,0.00,meteohub,2013-04-29 23:07:00,
2013-04-29 19:12:00,77.5,70.5,29.95,ESE,113,0.0,8.0,79,0.00,,,0.00,meteohub,2013-04-29 23:12:00,
2013-04-29 19:17:00,77.4,70.0,29.95,SE,126,4.0,8.0,78,0.00,,,0.00,meteohub,2013-04-29 23:17:00,
2013-04-29 19:22:00,77.2,69.8,29.95,SSW,211,2.0,7.0,78,0.00,,,0.00,meteohub,2013-04-29 23:22:00,
2013-04-29 19:27:00,77.0,69.6,29.95,ESE,123,2.0,7.0,78,0.00,,,0.00,meteohub,2013-04-29 23:27:00,
2013-04-29 19:32:00,77.0,69.6,29.95,ESE,107,1.0,8.0,78,0.00,,,0.00,meteohub,2013-04-29 23:32:00,
2013-04-29 19:37:00,76.8,69.4,29.95,South,169,1.0,8.0,78,0.00,,,0.00,meteohub,2013-04-29 23:37:00,
2013-04-29 19:42:00,76.8,69.4,29.95,SE,144,3.0,8.0,78,0.00,,,0.00,meteohub,2013-04-29 23:42:00,
2013-04-29 19:47:00,76.8,69.8,29.95,SSW,192,4.0,8.0,79,0.00,,,0.00,meteohub,2013-04-29 23:47:00,
2013-04-29 19:52:00,76.8,70.2,29.95,SE,143,1.0,8.0,80,0.00,,,0.00,meteohub,2013-04-29 23:52:00,
2013-04-29 19:57:00,76.6,70.0,29.95,SE,130,3.0,8.0,80,0.00,,,0.00,meteohub,2013-04-29 23:57:00,
2013-04-29 20:02:00,76.6,70.0,29.95,South,173,5.0,8.0,80,0.00,,,0.00,meteohub,2013-04-30 00:02:00,
2013-04-29 20:07:00,76.6,70.0,29.95,East,94,5.0,10.0,80,0.00,,,0.00,meteohub,2013-04-30 00:07:00,
2013-04-29 20:12:00,76.6,70.3,29.95,South,180,3.0,10.0,81,0.00,,,0.00,meteohub,2013-04-30 00:12:00,
2013-04-29 20:17:00,76.6,70.3,29.95,SE,136,0.0,10.0,81,0.00,,,0.00,meteohub,2013-04-30 00:17:00,
2013-04-29 20:22:00,76.6,70.3,29.96,SSE,161,3.0,13.0,81,0.00,,,0.00,meteohub,2013-04-30 00:22:00,
2013-04-29 20:27:00,76.6,70.3,29.96,SE,138,0.0,13.0,81,0.00,,,0.00,meteohub,2013-04-30 00:27:00,
2013-04-29 20:32:00,76.6,70.3,29.96,SSW,192,6.0,13.0,81,0.00,,,0.00,meteohub,2013-04-30 00:32:00,
2013-04-29 20:37:00,76.6,70.3,29.96,SSE,168,2.0,11.0,81,0.00,,,0.00,meteohub,2013-04-30 00:37:00,
2013-04-29 20:41:00,76.8,70.5,29.96,SSE,168,1.0,11.0,81,0.00,,,0.00,meteohub,2013-04-30 00:41:00,
2013-04-29 20:47:00,76.6,70.3,29.96,South,190,3.0,11.0,81,0.00,,,0.00,meteohub,2013-04-30 00:47:00,
2013-04-29 20:52:00,76.6,70.3,29.96,SSE,165,1.0,11.0,81,0.00,,,0.00,meteohub,2013-04-30 00:52:00,
2013-04-29 20:57:00,76.6,70.3,29.96,SSE,147,1.0,11.0,81,0.00,,,0.00,meteohub,2013-04-30 00:57:00,
2013-04-29 21:02:00,76.6,70.3,29.96,South,173,3.0,8.0,81,0.00,,,0.00,meteohub,2013-04-30 01:02:00,
2013-04-29 21:07:00,76.6,70.3,29.96,SSW,196,5.0,9.0,81,0.00,,,0.00,meteohub,2013-04-30 01:07:00,
2013-04-29 21:12:00,76.6,70.3,29.96,ENE,59,0.0,9.0,81,0.00,,,0.00,meteohub,2013-04-30 01:12:00,
2013-04-29 21:17:00,76.6,70.3,29.96,SSE,154,2.0,10.0,81,0.00,,,0.00,meteohub,2013-04-30 01:17:00,
2013-04-29 21:22:00,76.6,70.3,29.96,SE,137,7.0,11.0,81,0.00,,,0.00,meteohub,2013-04-30 01:22:00,
2013-04-29 21:27:00,76.6,70.3,29.96,SE,146,3.0,11.0,81,0.00,,,0.00,meteohub,2013-04-30 01:27:00,
2013-04-29 21:32:00,76.6,70.3,29.96,SE,145,2.0,11.0,81,0.00,,,0.00,meteohub,2013-04-30 01:32:00,
2013-04-29 21:37:00,76.6,70.3,29.96,SSW,196,3.0,9.0,81,0.00,,,0.00,meteohub,2013-04-30 01:37:00,
2013-04-29 21:42:00,76.6,70.3,29.96,ESE,119,3.0,9.0,81,0.00,,,0.00,meteohub,2013-04-30 01:42:00,
2013-04-29 21:47:00,76.6,70.3,29.96,SSE,163,1.0,9.0,81,0.00,,,0.00,meteohub,2013-04-30 01:47:00,
2013-04-29 21:51:00,76.6,70.3,29.96,SSE,150,4.0,9.0,81,0.00,,,0.00,meteohub,2013-04-30 01:51:00,
2013-04-29 21:57:00,76.6,70.7,29.96,ESE,109,4.0,9.0,82,0.00,,,0.00,meteohub,2013-04-30 01:57:00,
2013-04-29 22:02:00,76.6,71.1,29.95,SSW,197,1.0,8.0,83,0.00,,,0.00,meteohub,2013-04-30 02:02:00,
2013-04-29 22:07:00,76.6,71.1,29.95,SE,127,3.0,8.0,83,0.00,,,0.00,meteohub,2013-04-30 02:07:00,
2013-04-29 22:12:00,76.6,70.7,29.95,SSE,161,2.0,10.0,82,0.00,,,0.00,meteohub,2013-04-30 02:12:00,
2013-04-29 22:17:00,76.6,70.7,29.96,East,92,0.0,12.0,82,0.00,,,0.00,meteohub,2013-04-30 02:17:00,
2013-04-29 22:22:00,76.6,71.1,29.96,South,188,1.0,12.0,83,0.00,,,0.00,meteohub,2013-04-30 02:22:00,
2013-04-29 22:27:00,76.6,70.7,29.96,ESE,123,4.0,12.0,82,0.00,,,0.00,meteohub,2013-04-30 02:27:00,
2013-04-29 22:32:00,76.6,70.7,29.96,SSE,151,1.0,9.0,82,0.00,,,0.00,meteohub,2013-04-30 02:32:00,
2013-04-29 22:37:00,76.6,70.7,29.96,East,83,3.0,9.0,82,0.00,,,0.00,meteohub,2013-04-30 02:37:00,
2013-04-29 22:42:00,76.8,70.9,29.97,East,89,2.0,9.0,82,0.00,,,0.00,meteohub,2013-04-30 02:42:00,
2013-04-29 22:47:00,76.8,70.9,29.97,South,178,0.0,9.0,82,0.00,,,0.00,meteohub,2013-04-30 02:47:00,
2013-04-29 22:52:00,76.8,70.9,29.97,SSE,148,1.0,11.0,82,0.00,,,0.00,meteohub,2013-04-30 02:52:00,
2013-04-29 22:57:00,77.0,71.1,29.97,ESE,110,2.0,11.0,82,0.00,,,0.00,meteohub,2013-04-30 02:57:00,
2013-04-29 23:02:00,77.0,71.1,29.97,SE,130,2.0,11.0,82,0.00,,,0.00,meteohub,2013-04-30 03:02:00,
2013-04-29 23:07:00,77.0,71.1,29.98,South,185,5.0,10.0,82,0.00,,,0.00,meteohub,2013-04-30 03:07:00,
2013-04-29 23:12:00,77.0,70.7,29.97,SSE,159,0.0,10.0,81,0.00,,,0.00,meteohub,2013-04-30 03:12:00,
2013-04-29 23:17:00,77.0,70.7,29.97,South,186,1.0,9.0,81,0.00,,,0.00,meteohub,2013-04-30 03:17:00,
2013-04-29 23:22:00,76.8,70.5,29.97,ESE,117,1.0,8.0,81,0.00,,,0.00,meteohub,2013-04-30 03:22:00,
2013-04-29 23:27:00,76.8,70.5,29.97,SSW,194,6.0,8.0,81,0.00,,,0.00,meteohub,2013-04-30 03:27:00,
2013-04-29 23:32:00,76.8,70.9,29.97,SSW,200,4.0,8.0,82,0.00,,,0.00,meteohub,2013-04-30 03:32:00,
2013-04-29 23:37:00,76.8,70.9,29.97,ESE,114,1.0,8.0,82,0.00,,,0.00,meteohub,2013-04-30 03:37:00,
2013-04-29 23:42:00,76.8,70.9,29.97,SE,142,0.0,8.0,82,0.00,,,0.00,meteohub,2013-04-30 03:42:00,
2013-04-29 23:47:00,76.8,70.9,29.97,South,181,3.0,8.0,82,0.00,,,0.00,meteohub,2013-04-30 03:47:00,
2013-04-29 23:52:00,76.8,70.9,29.97,SSE,160,2.0,8.0,82,0.00,,,0.00,meteohub,2013-04-30 03:52:00,
2013-04-29 23:57:00,76.8,70.9,29.97,SSE,150,1.0,8.0,82,0.00,,,0.00,meteohub,2013-04-30 03:57:00,